Volver al catálogo

STARLINK-34993

ActivoComunicacionesSSO
NORAD 65389·PAYLOAD·🇺🇸 United States

Lanzado Aug 30, 2025 desde Vandenberg Space Force Base

Loading…

Próximos Pases (próximas 24 horas)

TLE

ActualizadoSource: CelesTrak SupGP

Época: Sep 14, 2026, 23:05 UTC

1 65389C 25191L   26257.96229167  .00073300  00000+0  22752-2 0  2572
2 65389  97.2847 124.0745 0001993  92.6923 161.6051 15.33404100    18

Sigue STARLINK-34993 en tiempo real con AllMySat

Download on the App Store